Location: Central Falls
(41.8900°N, 71.3929°W)
Time: 16:35:55
(UTC+00:00)

Vanguard 1 Rocket - Pass Details

Date: 08 December 2023
Orbit: 654 x 4218 km, 34.3° (Epoch: 25 February)

Event Time Altitude Azimuth Distance (km) Brightness Sun altitude
Rises 10:27:42 0° 253° (WSW) 8,335 - -16.7°
Exits shadow 10:29:40 - 253° (WSW) 7,946 11.7 -16.3°
Reaches altitude 10° 10:33:58 10° 252° (WSW) 7,056 11.4 -15.5°
Maximum altitude 10:55:16 64° 178° (S) 2,825 9.9 -11.8°
Drops below altitude 10° 11:06:25 10° 100° (E) 3,975 12.2 -9.8°
Sets 11:08:54 0° 96° (E) 4,637 12.8 -9.4°
